GEFSMW_con_prob3kmehi_192.txt.gz
EHI
5 8 11 12 16 21 23 23 24 22 19 16 14 12 9 5 2 1 0 0 1 0 1 1 1 0 0 0 0 0 1 2 1 0 0 0 1 1 2 2 2 1 0
9 12 15 16 18 22 24 23 23 21 18 15 13 11 9 7 4 2 1 1 1 0 0 0 0 0 0 0 0 1 2 2 1 0 0 0 0 1 2 2 2 1 1
14 16 19 19 19 22 24 23 21 18 16 15 13 12 11 10 7 5 3 1 1 0 0 0 0 0 0 0 0 1 2 2 1 0 0 0 0 0 1 1 1 1 1
16 19 21 21 21 23 24 21 17 14 14 15 15 14 14 13 10 6 4 2 0 0 0 0 0 0 0 0 0 0 1 2 2 2 1 2 1 0 0 0 0 0 1
19 20 22 24 25 25 25 20 15 12 12 13 14 15 15 13 9 5 2 1 0 0 0 0 0 0 0 0 0 0 1 2 3 3 3 3 2 1 1 0 0 0 0
22 22 24 26 29 30 29 24 17 13 11 11 11 12 12 11 8 4 2 1 0 0 0 0 0 0 0 0 0 0 1 2 3 4 3 3 3 3 2 1 0 0 0
25 25 25 27 32 35 35 31 24 17 13 11 9 9 10 9 7 5 4 3 1 1 0 0 0 0 0 0 0 0 1 1 3 3 3 3 3 3 2 1 0 0 0
25 26 26 28 34 40 41 38 32 23 17 14 10 9 9 9 7 5 4 4 3 2 1 1 1 0 0 0 0 0 0 1 3 3 3 3 3 2 1 1 0 0 0
23 25 26 28 32 38 42 42 37 28 21 17 13 11 9 8 7 6 5 4 4 3 3 2 2 1 0 0 0 0 1 2 2 2 3 3 3 1 0 0 0 0 0
23 25 28 29 30 33 37 39 37 30 23 19 15 11 8 8 8 7 6 5 4 3 3 3 3 2 2 1 0 1 1 2 2 2 2 3 3 1 0 0 0 0 0
22 25 29 32 31 31 33 35 34 31 25 20 16 11 8 9 9 7 6 5 4 3 3 3 3 4 4 2 1 2 2 2 2 2 3 3 3 2 1 0 0 0 0
19 23 30 33 34 34 34 33 32 29 25 21 16 11 9 9 9 8 6 5 4 4 4 4 4 4 4 3 3 3 4 4 3 3 3 3 3 3 2 0 0 0 0
21 25 31 34 34 34 34 33 31 28 24 21 17 13 10 9 9 8 7 6 6 6 5 5 4 3 3 3 3 4 5 5 4 3 3 3 3 3 2 0 0 0 0
27 30 33 33 33 33 34 35 33 29 25 22 19 15 11 10 9 8 8 7 7 6 5 4 3 3 3 3 3 3 4 4 4 3 3 3 3 3 2 0 0 0 0
27 31 34 35 35 36 38 38 35 32 30 27 23 18 12 9 7 7 8 8 7 6 4 3 3 3 3 3 3 3 3 3 3 3 3 3 3 2 1 0 0 0 0
24 26 31 35 37 39 42 41 38 36 36 33 28 22 15 10 8 7 7 7 6 5 4 3 3 3 3 3 3 3 3 3 3 3 3 3 2 1 0 0 0 0 0
21 22 25 30 34 38 40 42 41 39 37 34 29 24 18 13 10 8 7 7 6 4 3 3 3 3 3 2 1 1 3 3 3 3 2 1 1 0 0 0 0 0 0
19 19 21 26 31 35 38 40 42 40 36 31 25 21 18 16 12 10 8 7 6 4 3 3 3 3 3 2 0 1 2 3 3 2 1 0 0 0 0 0 0 0 0
18 20 24 29 33 35 36 39 40 38 35 29 22 18 16 16 15 12 10 9 6 4 3 3 3 3 3 2 0 1 2 3 3 1 0 0 0 0 0 0 0 0 0
20 23 27 32 36 36 35 36 36 35 32 27 21 17 16 17 16 13 10 8 6 5 4 3 3 3 3 1 0 1 2 3 2 1 0 0 0 0 0 0 0 0 0
21 25 30 34 37 38 37 35 33 31 29 24 20 16 15 16 13 10 6 4 3 3 3 3 2 2 2 1 0 1 2 2 1 0 0 0 0 0 0 0 0 0 0
21 26 32 34 35 38 39 36 31 28 27 24 19 15 13 11 8 5 3 2 2 2 2 2 1 1 1 0 0 0 1 1 0 0 0 0 0 0 0 0 0 0 0
23 27 31 31 31 34 36 34 30 28 28 25 20 15 12 9 5 3 3 3 3 3 3 2 1 0 0 0 0 0 0 0 0 0 0 0 0 0 0 0 0 0 0
24 27 29 27 26 29 32 31 29 29 29 25 20 16 14 11 6 3 3 4 5 5 4 3 1 1 1 0 0 0 0 0 0 0 0 0 0 0 0 0 0 0 0
22 25 26 24 23 24 26 26 26 27 28 24 20 17 15 11 6 4 3 3 4 5 4 3 2 2 1 0 0 0 0 0 0 0 0 0 0 0 0 0 0 0 0
19 22 23 23 22 22 23 23 24 26 27 24 20 16 13 9 6 4 4 3 4 4 2 2 3 3 1 0 0 0 0 0 0 0 0 0 0 0 0 0 0 0 0

GEFSMW_con_prob3kmehi_198.txt.gz
EHI
15 16 19 20 22 29 37 41 42 43 39 30 21 16 13 9 4 2 2 3 3 3 3 3 3 2 1 1 1 0 1 2 2 1 0 0 1 2 2 1 1 1 0
18 19 20 22 26 34 40 42 44 45 40 31 22 16 13 9 4 3 3 4 4 3 3 3 3 3 2 1 1 1 2 2 3 2 1 0 1 1 1 1 1 1 1
20 22 22 22 26 35 41 42 45 47 42 32 23 18 15 12 8 7 7 8 7 6 5 5 4 4 3 2 2 3 2 2 3 3 2 1 1 2 1 1 1 1 1
20 24 25 23 24 30 37 41 45 46 41 32 24 20 18 14 11 11 11 12 11 10 9 6 5 5 4 2 2 3 3 2 2 3 4 4 4 5 3 2 0 0 1
23 26 28 26 25 28 33 40 47 48 42 34 27 23 17 12 10 11 13 14 14 12 9 7 5 5 4 3 3 4 5 4 4 4 4 6 8 8 6 3 1 0 0
25 27 28 29 29 31 34 42 51 53 47 40 33 26 18 11 10 12 13 13 12 10 8 6 6 6 6 6 6 6 6 4 3 3 4 7 9 9 8 5 2 1 1
27 28 31 34 37 38 42 50 58 57 51 46 39 30 21 15 13 13 13 11 8 7 7 7 8 8 7 7 8 7 6 3 2 2 4 7 8 9 9 7 5 2 2
29 30 33 37 41 44 50 58 62 60 55 49 43 36 27 19 15 14 13 10 6 4 7 9 10 10 9 8 9 8 6 4 2 2 3 6 8 9 9 8 6 4 3
28 28 30 35 40 45 50 57 61 60 54 48 42 37 32 24 18 15 13 11 9 7 8 9 9 10 11 11 11 9 7 6 5 4 4 5 7 8 7 5 5 5 4
25 25 27 32 38 43 47 52 57 56 50 44 38 34 31 27 21 17 14 13 14 13 11 9 9 10 12 13 13 11 8 7 7 6 5 4 5 6 4 3 3 4 4
24 24 28 34 39 43 49 52 54 52 49 46 40 35 31 27 24 20 17 16 17 15 13 10 10 12 14 15 15 13 10 9 8 6 4 4 4 4 3 3 3 3 3
26 29 33 39 44 48 53 55 54 51 51 51 48 41 36 33 29 24 19 18 18 16 12 11 12 13 15 16 16 15 12 10 8 6 5 5 4 3 4 4 4 3 3
30 35 41 45 49 54 58 58 54 50 49 52 51 46 43 42 37 29 23 21 20 17 13 12 14 14 14 15 16 16 14 12 10 9 9 7 4 4 4 4 4 3 3
33 38 44 47 52 57 60 59 55 52 51 53 53 49 47 45 41 35 29 26 23 20 17 16 15 12 11 12 14 15 16 14 12 11 10 7 4 4 4 4 4 3 3
31 37 43 47 52 56 58 59 57 56 56 58 57 52 48 45 42 38 34 31 27 24 22 20 15 10 9 10 12 14 15 15 12 10 8 6 4 2 3 3 3 4 4
29 34 41 48 53 55 57 58 60 60 60 60 60 56 52 47 43 38 34 32 29 27 26 22 16 11 9 8 8 9 12 13 10 7 6 5 3 1 1 1 2 3 3
29 32 39 49 56 56 55 57 60 61 61 61 61 58 53 47 42 36 32 29 27 26 25 23 19 15 11 7 4 4 7 9 8 6 5 5 4 2 2 1 1 1 1
30 33 38 46 54 56 54 55 58 60 61 63 63 58 51 45 40 36 32 29 27 25 24 23 21 18 13 6 2 1 4 6 7 6 4 4 5 4 3 2 1 0 0
31 34 37 42 49 54 54 54 55 57 60 63 62 58 51 45 41 37 33 30 29 28 25 21 19 16 11 6 2 1 3 6 7 6 4 4 5 4 2 2 1 0 0
31 32 36 41 48 53 54 53 53 54 56 59 58 55 51 47 44 40 36 32 30 28 23 18 15 13 10 6 2 1 4 7 7 6 5 4 3 2 1 1 1 1 0
32 32 36 42 48 52 52 52 52 51 51 52 51 50 48 46 44 43 39 32 27 24 18 13 11 10 8 5 1 1 4 7 8 8 7 5 2 0 0 0 1 1 1
33 34 38 43 46 48 49 50 51 49 48 47 45 43 43 42 42 43 39 31 24 20 16 12 11 9 7 4 1 0 1 4 7 8 7 5 2 1 0 0 1 1 0
32 34 37 39 40 42 43 45 48 48 47 45 42 39 38 39 39 39 35 29 23 19 16 14 12 9 6 3 1 1 1 1 4 6 6 3 2 1 0 0 0 0 0
29 30 31 32 33 35 38 40 42 46 46 44 41 36 33 32 33 33 30 25 22 18 15 14 13 10 7 5 3 2 2 1 2 3 3 2 1 0 0 0 0 0 0
23 24 25 25 26 30 34 37 40 42 42 40 37 31 26 24 24 24 22 18 16 14 12 11 11 10 8 5 4 3 2 2 2 2 2 2 2 1 1 1 0 0 0
19 20 21 21 23 26 30 36 39 40 40 38 34 27 21 18 18 19 17 12 10 9 7 8 9 9 7 5 4 3 2 1 2 3 3 3 3 2 2 2 1 0 0

GEFSMW_con_prob3kmehi_204.txt.gz
EHI
48 50 52 56 70 82 81 77 71 63 53 43 34 26 22 21 21 22 27 27 21 17 14 10 11 10 9 10 11 12 9 5 2 2 1 1 2 6 12 13 9 7 9
57 61 62 64 74 84 84 78 74 67 57 47 37 29 25 23 21 22 27 27 23 20 16 13 11 9 10 12 15 16 12 7 5 5 3 1 1 3 6 9 10 9 10
64 69 71 72 78 85 85 81 79 74 63 51 41 34 31 27 24 25 28 27 25 22 20 18 14 11 12 15 18 17 12 8 6 7 6 3 1 1 2 5 7 9 11
62 69 74 74 78 83 85 84 85 80 69 55 45 39 34 29 28 29 31 30 27 23 22 21 20 17 15 17 18 15 11 8 5 5 5 3 1 1 2 3 4 6 10
58 68 74 74 75 79 83 86 87 83 72 59 51 43 34 28 27 32 35 34 31 27 25 24 25 23 20 18 17 15 11 9 6 5 3 2 1 2 2 2 3 4 6
55 65 73 73 73 77 81 84 85 82 74 65 55 45 34 26 26 32 37 35 33 33 31 30 30 29 25 21 19 16 13 10 9 7 5 2 2 2 1 1 2 3 4
52 60 70 74 75 77 80 82 82 81 78 71 62 51 38 27 26 31 34 33 30 32 34 35 36 34 29 25 23 21 17 14 12 9 6 4 2 2 2 1 3 4 4
51 57 67 75 77 77 79 82 84 83 81 77 70 60 46 33 28 28 29 28 25 28 33 36 37 34 29 27 26 25 22 20 17 12 9 7 5 5 5 4 4 4 3
47 53 62 70 74 75 78 81 83 82 79 76 71 63 52 41 33 30 27 25 24 26 30 33 33 29 26 26 26 26 25 26 22 17 14 12 10 8 7 6 5 4 2
39 46 55 61 66 70 73 75 76 75 72 70 66 61 53 46 39 34 31 30 28 28 29 30 29 25 23 25 25 24 26 28 24 20 18 16 12 10 8 6 4 3 2
35 41 50 55 58 62 67 70 70 69 67 64 61 59 55 50 44 38 36 37 35 31 30 29 27 25 24 24 25 22 23 25 24 21 19 16 14 11 8 5 3 2 2
39 44 51 54 53 58 66 69 69 68 67 64 61 60 58 54 50 45 42 44 42 36 32 30 28 26 25 25 25 22 19 21 22 21 19 17 15 14 10 6 4 3 3
44 50 56 56 55 61 68 70 68 67 68 66 65 64 61 58 56 53 51 49 46 41 37 35 32 30 28 27 26 25 22 20 21 21 20 17 16 15 12 9 5 4 3
45 51 57 59 60 65 69 70 67 67 68 68 68 67 64 62 61 60 58 54 48 44 42 40 37 34 32 28 27 26 25 23 23 21 19 17 16 14 11 8 6 3 3
48 53 59 62 62 63 66 68 68 68 68 69 69 67 66 64 63 62 61 58 52 46 42 39 37 35 30 25 23 25 26 25 24 21 18 15 14 12 8 5 4 3 3
52 56 62 64 63 61 62 65 68 69 70 69 68 67 66 65 63 62 61 60 55 48 42 38 35 33 25 16 14 18 23 25 24 21 18 14 11 8 5 2 1 2 2
47 54 60 64 62 59 58 62 67 70 71 69 66 66 66 65 63 61 60 59 55 51 44 38 35 31 22 10 6 9 16 20 21 20 17 13 9 7 4 2 1 1 1
44 48 53 55 55 54 55 59 63 66 67 66 65 65 65 63 60 58 57 56 55 54 49 41 36 30 19 8 3 3 8 15 17 16 15 13 10 7 4 3 3 2 1
45 47 47 46 46 49 52 56 58 61 62 62 63 64 63 59 55 54 54 54 55 55 50 42 35 28 17 7 3 2 7 12 14 12 10 10 9 6 3 3 5 4 3
48 48 45 41 42 46 49 50 53 56 57 58 59 61 60 56 52 52 52 53 54 51 45 39 33 27 18 8 2 2 7 12 11 9 7 6 5 3 1 3 5 5 4
49 48 46 42 40 43 45 47 49 52 52 53 55 56 54 51 50 50 51 52 51 45 39 37 34 27 18 9 2 2 6 9 9 7 7 5 2 1 0 2 4 4 2
46 46 46 42 39 41 43 45 48 50 49 49 52 51 48 47 47 49 49 47 44 39 36 36 34 27 19 11 4 1 2 4 5 5 6 4 1 0 0 1 2 2 1
42 42 42 40 38 40 43 46 48 47 47 47 46 45 44 45 45 45 42 39 37 35 33 33 32 26 20 13 6 2 1 1 1 2 3 2 0 0 0 0 0 0 0
38 38 37 36 37 40 44 47 47 44 44 44 42 41 41 42 40 38 35 31 30 30 30 31 31 26 20 13 8 5 3 1 1 1 1 1 0 0 0 0 0 0 0
33 33 33 34 35 38 43 44 43 42 43 42 39 38 37 37 35 32 28 24 21 21 22 24 25 21 16 11 7 5 3 2 2 2 2 2 2 1 1 1 1 1 0
29 30 32 33 33 36 40 40 39 41 42 39 37 36 34 34 32 28 23 18 14 12 14 17 17 14 11 8 4 2 1 2 3 3 3 3 3 2 2 1 2 2 1

GEFSMW_con_prob3kmehi_210.txt.gz
EHI
15 23 32 36 35 31 26 23 22 23 21 16 10 6 4 5 6 6 6 5 5 4 3 2 1 0 0 0 0 0 0 0 0 0 0 0 0 0 0 0 0 0 0
19 27 38 45 48 43 35 29 26 26 25 21 14 8 4 4 5 7 7 7 8 8 5 4 2 1 1 0 0 0 0 0 0 0 0 0 0 0 0 0 0 0 0
23 32 44 54 60 58 47 36 29 29 28 25 19 12 7 5 5 7 9 10 12 12 9 5 3 2 1 0 0 0 0 0 0 0 0 0 0 0 0 0 0 0 0
25 33 45 56 63 65 56 42 34 31 29 26 21 17 13 9 7 8 9 10 10 11 10 7 4 3 1 0 0 0 0 0 0 0 0 0 0 0 0 0 0 0 0
28 32 42 54 62 64 58 48 40 34 31 27 23 20 17 13 9 7 7 7 7 9 10 9 6 3 1 0 0 0 0 0 0 0 0 0 0 0 0 0 0 0 0
32 34 41 52 62 64 62 57 50 43 36 31 26 23 19 15 11 8 6 5 7 9 11 10 7 4 2 1 0 0 0 0 0 0 0 0 0 0 0 0 0 0 0
36 38 44 55 63 66 68 66 59 51 43 36 29 23 18 16 12 8 6 7 8 9 10 9 7 4 2 2 1 1 1 0 0 0 0 0 0 0 0 0 0 0 0
40 43 48 56 62 65 69 69 63 53 46 39 30 21 16 14 11 8 7 8 8 9 7 7 6 4 3 4 4 4 3 1 0 0 0 0 0 0 0 0 0 0 0
42 43 46 52 57 58 60 63 60 53 48 41 31 20 14 11 9 8 7 7 7 7 7 6 5 4 4 5 6 5 4 2 1 1 1 1 0 1 1 1 1 1 0
37 40 43 47 50 50 52 56 56 54 49 43 34 23 14 9 7 6 6 6 5 6 5 6 6 5 5 6 7 6 5 4 4 4 4 3 2 2 2 2 2 2 1
32 36 41 43 44 46 47 49 53 52 48 43 38 29 20 12 8 6 6 7 7 6 5 5 5 5 6 7 8 8 8 8 7 7 6 4 3 3 3 3 3 3 3
28 32 38 40 42 43 42 43 47 49 47 42 39 34 27 20 14 10 9 9 9 9 9 8 6 5 6 8 9 10 11 11 10 8 6 4 3 3 3 3 3 3 3
26 30 35 38 38 38 38 40 43 45 43 39 36 34 31 26 22 16 12 11 11 11 12 11 8 6 5 7 10 12 13 13 12 9 5 4 3 3 3 3 3 3 3
27 31 35 36 34 33 34 36 39 41 41 36 32 32 32 29 24 20 15 12 11 12 13 13 12 9 7 8 11 14 14 13 11 8 5 4 3 3 3 3 3 3 3
31 32 35 35 33 32 33 34 35 38 39 35 30 29 30 28 26 24 21 15 12 11 12 14 14 12 11 11 12 14 15 12 9 7 5 4 3 2 2 2 3 3 3
31 32 34 34 33 33 34 33 32 33 37 36 31 28 29 30 31 31 28 21 15 12 12 13 13 12 11 10 10 11 12 11 8 6 5 5 3 1 1 1 1 2 3
29 29 30 31 30 29 32 32 29 29 34 37 33 31 31 34 37 37 33 27 21 17 14 12 12 10 8 6 5 5 7 8 8 7 7 7 5 2 0 0 0 1 2
23 23 24 25 24 24 27 31 31 30 34 37 35 34 34 36 38 38 35 31 26 22 18 15 13 10 6 2 1 2 4 5 6 6 7 7 5 2 0 0 0 0 1
21 19 19 20 21 22 26 31 33 34 36 38 37 36 35 35 36 37 35 32 29 25 22 18 16 13 6 1 0 1 2 2 2 2 3 4 3 1 0 0 0 0 0
24 22 21 22 23 25 28 31 33 36 37 37 36 35 34 32 32 33 33 32 29 26 22 20 18 14 8 3 0 1 1 1 0 0 1 1 1 0 0 0 0 0 0
28 28 28 28 27 27 30 31 32 34 34 32 30 31 30 28 28 30 31 29 28 26 23 20 18 14 9 5 1 0 0 0 0 0 0 0 0 0 0 0 0 0 0
30 30 30 29 28 28 29 30 29 29 28 26 24 24 26 27 28 28 28 28 27 26 24 21 17 13 9 5 2 0 0 0 0 0 0 0 0 0 0 0 0 0 0
27 27 27 25 25 26 27 27 25 23 22 21 20 20 23 26 28 26 25 25 25 24 22 21 18 14 10 7 3 1 0 0 0 0 0 0 0 0 0 0 0 0 0
22 22 21 20 21 23 24 24 23 20 19 20 20 20 22 25 26 23 21 21 22 21 20 18 16 14 12 8 4 1 1 0 0 0 0 0 0 0 0 0 0 0 0
16 17 17 16 17 19 20 20 20 19 20 20 20 20 22 23 22 19 16 16 16 16 15 13 12 12 11 7 4 2 2 1 0 0 0 0 0 0 0 0 0 0 0
13 14 15 14 15 16 16 16 17 19 20 20 20 21 23 22 19 15 12 12 11 10 11 10 9 10 9 6 3 2 2 2 1 0 0 0 0 0 0 0 0 0 0

GEFSMW_con_prob3kmehi_216.txt.gz
EHI
1 2 4 5 5 5 8 11 11 10 10 10 9 7 4 1 0 0 0 0 0 0 0 0 0 0 0 0 0 0 0 0 0 0 0 0 0 0 0 0 0 0 0
1 2 4 5 5 6 9 11 11 11 11 11 10 7 5 2 1 0 0 0 0 0 0 0 0 0 0 0 0 0 0 0 0 0 0 0 0 0 0 0 0 0 0
1 2 4 5 6 7 9 10 11 11 12 13 11 10 8 5 3 1 1 0 0 1 1 0 0 0 0 0 0 0 0 0 0 0 0 0 0 0 0 0 0 0 0
2 3 5 6 7 7 8 9 10 10 12 13 15 14 11 7 4 2 1 0 0 1 2 1 0 0 0 0 0 0 0 0 0 0 0 0 0 0 0 0 0 0 0
4 4 5 8 8 6 6 8 9 9 10 13 16 16 11 6 3 2 1 0 0 1 1 1 0 0 0 0 0 0 0 0 0 0 0 0 0 0 0 0 0 0 0
6 6 7 11 12 10 8 10 11 11 12 13 14 13 9 5 3 2 1 1 1 1 1 1 0 0 0 0 0 0 0 0 0 0 0 0 0 0 0 0 0 0 0
9 11 13 17 19 17 15 15 16 15 15 15 14 10 7 5 4 3 3 3 3 2 2 1 0 0 1 1 1 0 0 0 1 1 0 0 0 0 0 0 0 0 0
13 14 17 22 24 23 21 22 23 20 18 17 15 10 7 5 4 4 5 5 3 1 1 1 0 0 1 2 2 1 0 1 2 2 1 1 1 2 1 1 0 0 0
14 14 17 22 24 24 25 28 28 24 21 19 16 12 8 6 5 4 4 3 2 1 1 1 1 1 1 2 2 1 0 1 2 2 2 2 2 3 3 2 1 1 0
12 12 15 19 20 22 26 32 31 26 22 20 17 13 10 8 6 3 2 2 2 2 2 3 3 3 3 3 3 2 1 1 1 1 1 1 2 3 3 3 3 2 1
9 9 12 16 18 21 25 30 30 27 22 19 17 14 10 7 5 3 2 2 2 3 3 4 6 6 6 6 5 4 3 2 2 2 1 2 3 3 3 3 3 3 3
6 7 10 14 16 19 22 25 26 26 23 21 20 17 10 5 4 4 4 3 3 4 3 4 6 6 6 7 6 4 3 3 3 3 4 5 6 5 4 3 3 3 3
8 9 10 12 13 15 18 20 21 22 22 23 24 21 14 7 5 5 5 4 3 4 3 3 4 5 5 6 5 4 4 3 3 4 7 8 8 6 5 4 4 3 3
14 14 13 12 12 13 17 18 17 18 20 24 25 23 18 13 9 7 6 5 4 3 3 3 3 4 4 4 4 5 5 4 4 5 7 8 8 6 5 5 4 3 2
18 17 16 16 14 15 17 18 17 16 18 22 25 23 19 15 12 11 10 9 7 6 5 4 4 3 3 3 4 5 6 6 6 6 6 6 5 4 4 4 3 3 2
17 16 17 18 17 17 19 19 18 16 16 20 23 22 18 14 13 13 13 11 11 10 8 7 6 5 4 3 3 4 5 6 6 6 5 4 4 3 3 2 1 1 2
15 15 16 17 17 18 20 20 19 18 17 20 22 22 19 15 14 13 12 12 13 14 12 10 8 7 6 4 3 3 4 5 6 6 6 5 4 3 3 2 1 1 1
14 15 16 16 17 18 19 20 21 20 20 22 22 21 19 16 13 13 13 14 15 15 14 12 10 9 7 4 2 2 3 4 6 6 6 5 4 3 3 3 3 2 1
12 13 14 16 16 17 18 19 18 19 20 22 21 19 17 15 14 14 14 15 16 16 14 12 11 9 7 4 1 1 2 4 5 5 5 5 3 1 2 3 3 3 3
12 12 13 14 15 15 16 16 15 15 16 17 17 17 17 17 16 14 14 14 14 14 13 12 11 9 7 3 1 1 2 3 3 4 4 4 2 1 1 2 3 3 3
13 13 13 13 12 13 15 15 13 12 11 12 13 16 19 19 18 15 13 12 11 11 11 11 9 9 7 3 1 0 1 1 2 3 3 2 1 0 0 1 2 2 2
12 14 14 12 10 10 13 14 13 12 11 11 13 16 17 18 17 17 15 12 10 9 9 8 7 6 5 3 2 1 0 1 2 2 2 1 0 0 0 0 1 1 1
11 12 13 11 8 9 11 12 12 12 12 12 13 14 15 15 16 17 16 13 10 8 8 9 8 7 6 6 4 2 1 1 1 1 0 0 0 0 0 0 0 0 0
9 10 10 9 8 9 10 10 10 12 14 13 11 12 13 14 14 16 17 14 10 8 8 10 12 12 10 9 7 4 2 1 1 1 1 1 0 0 0 0 0 0 0
8 9 9 8 7 8 9 9 9 11 13 12 9 10 11 13 14 15 15 13 10 9 8 10 13 13 10 8 6 4 3 2 2 2 2 2 1 1 1 0 0 0 0
8 9 9 8 7 7 7 8 8 11 12 11 9 8 10 12 13 14 14 12 9 8 7 9 12 11 7 4 3 2 2 3 3 3 3 3 2 2 2 1 0 0 0

GEFSMW_con_prob3kmehi_222.txt.gz
EHI
4 6 9 10 8 5 7 12 15 17 18 17 18 18 14 10 8 6 5 3 2 3 5 5 6 6 5 5 3 2 1 1 0 0 0 0 0 1 0 0 0 0 0
6 9 11 10 8 7 9 13 16 17 18 17 16 15 14 11 9 7 6 4 3 3 4 5 5 5 6 6 5 4 3 2 1 1 1 0 0 1 0 0 0 0 0
7 11 14 11 9 9 11 14 17 20 19 17 15 14 13 12 11 8 6 4 4 3 4 4 4 4 6 7 7 6 5 4 3 3 3 1 0 0 0 0 0 0 0
7 11 15 13 10 10 11 15 20 24 24 21 18 17 15 13 13 10 6 4 5 5 5 4 5 5 5 7 7 6 5 5 4 4 4 2 1 1 1 0 0 0 0
8 11 15 15 13 11 11 16 24 29 28 24 21 19 17 14 12 10 8 7 7 7 7 7 8 8 7 7 7 7 5 4 3 4 4 4 4 3 2 1 0 0 0
12 12 14 15 16 14 15 20 28 32 30 26 23 21 20 17 14 13 13 11 9 10 11 13 14 12 10 9 9 9 7 4 4 4 4 5 5 3 3 2 1 0 0
17 15 16 19 21 21 21 25 31 32 31 29 26 25 24 22 19 17 15 12 10 11 14 16 17 16 14 12 13 13 10 6 5 4 5 6 5 3 3 3 1 0 0
23 21 21 25 28 28 28 31 34 33 30 28 27 27 25 21 19 17 14 11 9 9 11 13 13 13 14 15 18 18 13 10 7 5 6 7 6 5 4 4 3 1 0
29 26 24 26 30 32 33 35 37 35 31 27 24 24 23 20 18 17 15 12 9 7 7 8 8 10 13 18 21 20 17 12 9 7 8 10 11 9 7 6 7 4 2
35 32 26 24 28 32 34 35 35 35 33 29 24 22 24 23 20 19 17 15 11 8 7 8 9 11 14 17 20 19 17 14 11 9 10 12 13 12 10 10 10 8 6
38 36 32 30 31 33 35 34 34 33 33 30 27 27 27 25 23 22 20 18 15 11 10 12 13 13 14 15 16 16 16 15 14 12 12 12 13 12 14 14 13 12 11
39 40 39 37 36 37 37 36 34 33 32 31 32 33 32 29 26 24 22 22 19 15 14 15 14 13 14 15 17 17 17 19 18 15 14 13 12 13 15 17 15 14 14
40 40 40 38 38 39 38 37 33 31 31 33 35 36 35 32 29 25 24 24 22 18 15 13 12 12 12 14 17 19 21 23 23 21 18 16 14 14 16 17 17 15 14
42 39 37 37 40 41 40 37 33 30 30 33 35 35 34 31 28 25 25 25 22 18 14 11 10 10 11 13 15 19 22 26 27 25 22 19 16 15 16 17 18 16 14
43 39 37 39 41 41 40 38 34 32 32 33 34 33 31 29 26 26 26 26 23 19 17 14 13 12 13 14 15 17 20 25 27 25 23 21 17 14 13 13 14 14 14
42 39 37 39 41 40 38 37 36 37 39 38 35 32 31 29 27 26 26 25 23 21 20 19 18 16 14 13 13 15 18 21 22 20 19 18 16 13 10 8 6 8 10
39 35 33 35 39 38 37 36 38 41 43 41 38 35 33 31 29 28 27 25 23 21 22 23 22 19 14 9 7 9 14 17 17 16 16 15 15 14 12 8 5 4 5
36 31 28 31 36 36 35 37 40 43 44 41 38 38 37 34 31 30 28 26 23 21 22 24 23 21 15 8 4 6 12 16 15 14 14 14 13 14 14 12 9 8 7
33 30 27 31 34 33 32 35 37 40 41 39 36 37 39 37 33 30 29 27 26 24 23 23 22 20 15 9 5 6 12 16 16 14 12 10 10 10 11 12 14 13 13
30 28 28 31 33 31 31 33 34 33 33 33 33 35 37 36 31 28 28 29 30 29 26 23 20 18 14 9 5 5 12 17 18 16 12 7 6 6 6 10 14 15 16
26 25 26 29 31 31 31 33 32 28 27 27 29 31 31 29 27 26 27 29 31 31 27 23 20 17 13 9 5 4 9 15 18 17 14 9 5 2 2 5 10 12 13
21 22 24 27 29 31 32 33 32 29 25 23 24 24 21 19 21 23 25 25 26 25 23 22 19 16 12 9 6 3 4 9 14 16 15 11 5 1 0 2 4 6 6
17 19 23 27 29 29 30 30 29 27 24 22 20 17 13 12 15 19 21 22 22 21 20 19 17 13 11 9 6 3 1 3 8 12 11 8 3 1 1 1 1 1 2
15 17 21 24 27 26 24 23 23 22 22 22 19 15 10 9 13 16 18 20 21 21 20 17 14 11 10 9 8 6 4 3 5 7 6 4 2 1 2 2 1 1 2
11 13 16 17 19 19 19 19 20 20 20 20 17 13 10 9 11 14 16 17 18 17 16 14 11 9 9 9 9 8 6 4 3 3 4 3 3 3 4 4 3 3 3
8 9 12 13 13 14 16 18 19 19 19 16 13 12 10 8 9 13 15 15 14 13 11 10 8 7 7 8 7 7 5 3 2 2 4 5 5 5 5 5 4 3 3

GEFSMW_con_prob3kmehi_228.txt.gz
EHI
28 26 25 29 39 46 46 40 35 30 24 21 19 16 12 12 16 20 26 30 26 22 18 16 15 13 11 9 9 10 9 6 4 3 2 3 5 6 5 6 5 2 1
40 39 36 38 47 52 50 45 41 35 27 22 21 18 14 13 17 23 28 30 27 23 20 17 15 14 13 12 12 12 10 6 4 3 3 3 4 4 5 6 5 2 1
55 55 51 49 54 56 54 50 50 44 32 26 23 21 18 16 20 26 29 29 27 25 22 19 16 17 17 16 16 15 11 6 4 4 4 3 2 3 4 4 3 2 2
57 60 61 58 57 55 54 58 60 55 42 31 25 23 22 20 22 28 29 29 28 27 25 20 18 19 20 19 17 15 11 6 5 5 4 3 2 3 3 2 3 3 3
56 61 66 66 60 54 57 66 70 64 52 39 30 26 23 21 24 30 31 29 28 27 25 24 22 22 22 19 17 16 13 9 7 6 5 4 2 2 3 2 3 4 4
58 63 69 72 66 58 60 70 75 69 59 47 37 32 28 25 28 32 32 28 27 26 26 27 28 27 25 22 19 18 17 14 11 9 7 5 3 2 3 3 3 3 4
58 64 72 76 74 68 68 74 78 73 63 53 46 42 37 32 32 33 30 25 24 26 28 31 33 32 29 26 23 21 18 17 15 14 11 8 5 3 2 4 4 3 3
53 60 68 74 76 76 77 79 79 75 66 57 52 48 43 36 33 32 28 23 21 23 28 33 35 35 30 27 25 23 21 21 20 17 15 11 7 4 3 4 5 4 2
48 55 63 67 70 75 79 80 78 73 65 57 53 50 46 39 33 30 26 21 20 21 26 32 35 34 30 26 25 24 24 25 24 20 18 16 11 7 6 6 8 7 5
46 53 61 61 62 68 74 76 75 72 65 57 54 51 47 42 36 31 25 24 25 25 25 29 32 33 30 27 27 25 24 26 26 24 22 19 15 13 12 11 11 11 10
47 54 62 61 59 65 71 71 72 72 67 60 56 53 49 45 42 36 32 32 34 33 30 30 31 31 28 28 28 26 23 24 25 24 21 19 17 17 17 17 16 15 13
53 59 66 65 63 67 72 72 70 69 66 62 59 56 52 50 48 45 43 43 44 41 37 34 30 25 23 25 27 25 23 24 24 22 20 19 19 19 19 19 20 17 15
60 65 72 72 68 70 72 69 65 63 63 62 60 56 55 54 52 51 50 51 49 46 39 33 25 19 16 18 21 20 20 22 22 22 22 21 19 18 18 18 19 19 16
61 66 72 73 70 69 68 63 58 57 59 61 60 56 55 54 52 51 50 50 49 44 37 29 22 16 13 14 16 17 18 20 21 22 23 22 19 18 17 16 17 17 17
56 59 64 67 66 65 64 61 59 59 60 60 59 57 56 53 50 47 45 45 44 40 34 29 24 19 14 12 15 18 19 20 21 22 24 22 19 16 14 13 14 14 14
53 54 55 57 59 60 60 60 61 62 62 59 56 56 55 52 49 45 42 39 37 36 33 30 28 23 15 11 13 17 20 21 22 22 22 21 18 14 11 9 8 9 10
52 52 51 51 52 53 53 54 57 59 59 56 53 53 52 49 47 44 40 36 35 34 33 31 29 25 17 10 9 12 18 22 22 21 21 20 17 14 13 10 8 7 7
50 49 47 46 45 45 44 46 50 54 53 50 49 49 48 46 46 44 40 37 35 35 34 31 28 25 17 10 6 8 16 22 21 20 20 22 19 15 14 14 12 10 8
46 45 42 40 39 38 39 42 47 49 47 46 46 47 45 45 46 45 41 38 36 35 32 29 26 23 18 12 7 8 15 21 22 21 20 22 20 14 11 12 14 13 12
41 40 38 36 35 35 37 41 44 46 44 43 43 44 43 42 42 42 40 38 36 33 29 25 23 22 19 13 8 8 15 21 22 22 21 19 17 11 6 8 12 13 13
36 37 37 35 34 33 34 36 39 39 38 38 38 38 36 34 34 36 37 36 35 32 28 25 23 21 18 13 6 5 10 17 20 21 19 15 11 6 2 5 10 11 10
33 35 36 35 32 31 31 32 33 32 30 31 32 30 28 26 28 31 32 32 30 29 28 27 25 21 17 11 5 3 5 9 14 15 14 10 6 2 0 2 5 6 5
32 32 31 30 28 27 27 28 28 27 25 25 24 24 22 21 24 27 27 26 25 24 25 25 23 21 18 12 6 3 2 3 6 8 8 6 3 1 0 1 2 3 4
26 25 23 23 23 24 25 24 24 24 23 21 19 19 19 20 22 22 20 21 21 20 20 21 22 22 21 16 10 6 3 2 3 5 5 4 2 2 2 2 3 4 7
19 17 16 17 20 23 24 23 22 22 22 20 17 16 17 18 19 17 14 14 15 14 14 16 19 21 19 15 11 9 7 5 4 4 5 4 4 4 5 5 5 7 9
16 15 12 13 17 22 24 24 23 23 21 19 16 15 17 18 17 15 12 9 9 9 9 12 15 17 15 11 9 9 9 7 5 5 6 6 5 6 7 6 6 7 9

GEFSMW_con_prob3kmehi_234.txt.gz
EHI
15 15 14 17 21 22 20 17 15 14 13 13 12 10 6 5 6 5 5 6 5 4 3 4 6 6 3 1 0 0 0 0 0 0 0 0 0 0 0 0 0 0 0
16 18 20 25 28 27 23 20 18 17 16 14 12 9 6 5 6 6 5 6 6 4 4 5 7 6 4 2 1 1 1 1 1 0 0 0 0 0 0 0 0 0 0
17 21 30 37 38 34 27 24 23 23 21 18 15 11 8 6 7 6 5 5 6 7 7 8 7 5 5 5 4 3 3 2 2 1 0 0 0 0 0 0 0 0 0
19 25 36 44 44 37 29 27 27 27 25 24 22 18 12 8 7 6 4 4 7 10 11 10 7 4 4 5 6 5 4 3 3 2 1 0 0 0 0 0 0 0 0
23 28 37 45 45 37 29 28 29 28 28 29 29 26 18 11 9 7 4 4 7 10 12 10 7 5 4 5 6 6 4 3 2 2 1 0 0 0 0 0 0 0 0
28 32 38 43 44 38 32 30 31 30 31 31 31 29 22 15 11 9 6 5 6 8 10 10 8 6 6 6 6 6 4 2 1 1 0 0 0 0 0 0 0 0 0
33 37 41 43 45 45 41 37 34 32 32 31 30 28 23 17 14 12 9 7 7 7 8 9 9 8 7 6 6 5 4 1 0 0 0 0 0 0 0 0 0 0 0
36 40 43 44 48 52 51 45 40 36 33 31 29 27 22 17 15 14 13 11 9 7 8 9 10 10 8 6 5 4 3 2 1 0 0 0 0 0 0 0 0 0 0
39 40 43 46 49 54 56 52 47 42 37 32 28 25 21 18 17 16 15 13 10 8 8 10 11 11 9 6 3 1 1 2 1 0 0 0 0 0 0 0 1 1 1
39 41 45 49 50 54 57 56 52 47 40 33 29 24 21 20 19 19 17 14 11 10 10 11 12 11 10 6 2 0 0 1 1 0 0 0 0 0 0 0 1 2 3
36 39 45 49 52 55 57 56 53 48 41 36 32 27 24 22 21 21 20 16 13 12 12 12 12 11 9 5 1 0 0 0 0 0 0 0 0 0 1 1 2 3 3
33 35 41 47 50 52 54 53 50 46 42 39 37 33 29 25 23 21 21 18 15 13 12 11 10 9 7 4 1 0 0 0 0 0 0 1 0 0 1 2 3 3 3
35 35 38 42 43 44 46 47 47 44 42 41 40 39 34 29 25 22 19 17 15 12 11 10 9 7 6 3 1 1 0 0 0 0 1 1 1 1 2 3 3 3 3
38 38 37 36 35 35 36 39 41 41 41 41 41 40 36 31 27 21 17 15 14 12 11 10 9 7 5 4 3 1 0 0 0 0 1 2 3 3 3 4 4 3 3
36 35 33 32 31 30 31 32 35 38 39 39 39 37 35 31 27 23 19 17 15 14 13 12 9 7 6 4 3 1 0 0 0 0 1 2 3 4 5 6 5 4 4
31 29 28 29 29 29 29 30 32 35 37 37 35 33 32 31 28 25 23 20 17 16 15 13 11 8 6 3 1 0 1 1 1 1 1 1 2 3 5 6 5 4 4
30 27 25 26 27 26 27 29 30 32 34 34 32 31 32 32 29 26 25 22 18 17 16 14 13 10 6 3 1 0 1 2 2 2 1 1 2 3 4 5 4 3 2
29 27 25 24 24 23 24 26 26 28 30 30 30 31 32 32 28 25 25 23 20 17 16 14 13 10 7 3 1 0 1 2 3 3 2 1 3 5 4 3 4 3 3
26 24 22 21 22 21 22 23 23 24 25 26 27 30 31 30 28 25 24 23 21 18 16 14 11 9 6 4 3 1 0 1 2 2 2 1 3 4 3 2 4 4 4
20 19 16 16 18 19 20 20 20 19 20 21 24 27 28 28 27 24 22 22 21 19 17 14 11 8 7 6 4 2 1 0 1 2 1 1 2 2 1 1 4 4 4
15 13 12 13 15 16 17 18 18 17 17 18 20 22 22 22 21 19 19 21 21 18 17 15 11 8 7 6 4 3 2 1 2 3 2 1 1 1 1 1 3 4 3
13 11 10 11 12 13 14 15 15 15 16 16 17 17 16 15 14 14 15 17 17 16 16 15 12 8 7 6 4 3 2 2 3 4 3 3 2 1 0 1 2 2 1
11 9 8 9 9 11 12 12 11 12 14 15 16 15 13 11 10 10 11 11 11 12 13 13 11 8 7 6 5 3 2 2 3 4 4 3 2 2 1 1 1 0 0
7 7 6 6 7 8 9 9 9 10 11 13 14 15 14 11 9 8 9 9 9 8 9 10 10 9 8 7 6 4 3 3 2 3 3 3 2 2 2 2 1 0 0
5 5 5 5 4 4 5 6 7 8 9 11 13 13 12 10 8 7 7 8 8 7 6 7 7 7 7 6 5 4 3 3 3 3 3 3 3 3 3 3 2 1 0
4 5 5 4 2 2 3 4 6 7 8 10 11 11 11 9 7 6 7 8 8 6 4 5 6 5 5 4 4 2 2 2 3 3 3 3 3 3 3 3 3 2 1

GEFSMW_con_prob3kmehi_240.txt.gz
EHI
3 3 3 4 6 7 6 4 3 4 5 3 1 0 0 0 0 0 0 0 0 0 0 0 0 0 0 0 0 0 0 0 0 0 0 0 0 0 0 0 0 0 0
2 3 4 5 8 9 8 7 6 7 8 7 4 2 1 0 0 0 0 0 0 0 0 0 0 0 0 0 0 0 0 0 0 0 0 0 0 0 0 0 0 0 0
4 5 6 7 9 10 10 9 9 10 11 10 8 7 4 2 1 1 0 0 0 0 0 0 0 0 1 1 1 1 1 1 1 0 0 0 0 0 0 0 0 0 0
7 9 8 8 9 11 11 10 10 11 11 11 11 10 8 6 4 3 1 0 0 0 0 0 1 1 3 3 3 2 2 2 2 1 1 2 1 1 0 0 0 0 0
12 13 12 9 10 11 12 11 10 10 10 11 12 12 11 8 6 4 2 1 1 1 1 1 2 3 5 5 4 4 4 4 3 3 3 3 2 1 0 0 0 0 0
15 16 15 12 10 11 14 13 11 10 10 11 14 15 13 11 9 6 3 3 2 2 2 3 3 4 6 6 5 5 5 5 4 3 3 2 1 1 0 0 0 0 0
16 15 14 12 10 11 15 16 13 11 10 12 16 17 16 14 12 8 4 3 3 3 3 3 3 4 5 6 6 6 6 6 5 3 1 1 0 0 0 0 0 0 0
16 14 12 10 9 11 16 18 16 13 12 13 17 18 16 14 12 8 5 3 3 3 3 3 3 3 4 4 5 6 6 6 5 2 0 0 0 0 0 0 0 1 1
16 14 11 9 10 12 16 18 17 16 16 16 17 17 15 13 11 9 6 4 3 3 3 3 3 3 3 3 4 5 5 4 3 1 0 0 0 0 0 0 0 0 0
13 13 10 9 11 14 17 19 18 17 17 17 16 15 13 12 12 10 8 5 5 5 5 5 5 5 4 4 4 3 2 1 1 0 0 0 0 0 0 0 0 0 0
9 11 11 11 13 16 18 19 18 16 15 14 14 14 13 13 12 12 11 10 9 8 8 8 8 7 6 5 4 3 1 0 0 0 0 0 0 1 1 1 0 0 0
8 12 14 14 15 18 20 20 18 14 12 12 12 14 15 15 14 14 14 14 11 9 9 9 9 8 6 5 4 3 2 1 0 0 0 0 0 1 2 1 0 0 0
9 13 15 15 18 20 22 22 19 15 12 12 12 14 16 17 16 16 15 13 10 7 7 7 7 6 6 6 6 5 3 1 0 0 0 0 0 1 1 0 0 1 1
7 10 12 13 17 20 21 23 21 17 14 13 13 13 16 18 18 17 14 11 8 6 5 5 5 5 5 7 7 6 4 1 0 0 0 0 0 0 0 1 1 2 2
6 8 9 11 15 17 18 22 23 19 17 17 16 16 17 18 19 19 14 9 6 6 6 6 5 5 5 5 6 6 5 2 0 0 0 0 0 0 0 1 2 2 2
9 10 9 9 12 15 18 21 22 22 22 22 22 21 20 20 20 19 14 8 5 6 7 7 7 6 5 3 3 4 4 1 0 0 0 0 0 0 0 1 1 1 1
12 11 10 9 11 15 18 19 20 22 23 23 23 24 23 22 21 18 13 8 6 6 8 8 7 6 5 3 1 2 3 1 1 1 1 1 0 0 1 1 0 0 0
13 12 11 12 15 16 17 17 18 19 20 20 22 24 22 20 18 16 12 9 8 9 9 9 7 6 6 3 1 1 2 2 2 2 3 2 1 0 1 2 1 1 1
13 13 13 15 18 18 18 16 16 16 15 16 17 18 16 14 13 13 12 11 11 12 11 11 9 9 8 4 1 1 3 4 3 4 4 2 1 0 1 2 3 2 2
11 13 14 15 17 18 17 14 13 11 10 10 12 12 12 9 8 10 11 12 12 11 11 11 10 11 10 5 1 1 4 5 5 5 5 3 1 0 1 2 3 3 3
10 12 14 14 15 14 13 11 10 8 5 6 8 9 9 7 6 7 9 10 10 9 9 9 9 9 9 5 1 1 3 5 5 5 5 4 2 1 0 1 1 2 2
11 12 12 12 11 10 10 9 8 6 4 5 6 6 6 6 6 6 7 8 8 8 7 7 6 6 6 4 1 0 1 3 3 3 4 4 3 1 0 0 0 1 1
12 11 11 10 8 7 7 7 6 4 4 4 5 4 4 4 5 5 6 7 8 8 7 6 4 5 5 3 1 0 0 1 1 1 2 2 2 1 1 1 0 0 1
11 10 10 9 7 5 5 4 4 4 4 4 4 4 4 5 5 6 6 7 8 8 7 6 5 4 4 3 2 1 1 1 0 0 1 1 1 1 2 2 1 1 2
9 9 9 7 5 4 3 3 3 4 4 4 4 4 5 5 6 6 6 7 7 7 6 6 7 5 3 2 2 2 2 1 0 0 0 0 1 2 3 3 3 3 3
8 8 7 5 4 3 3 3 3 3 4 4 5 4 3 3 4 5 6 6 6 5 4 5 7 6 3 1 1 1 1 1 0 0 0 0 1 3 3 3 3 3 3

GEFSMW_con_prob3kmehi_246.txt.gz
EHI
11 14 14 10 5 5 8 11 12 13 12 12 12 11 7 3 2 4 6 7 7 6 5 5 5 4 3 2 3 3 4 4 4 4 3 1 1 1 0 0 0 0 0
16 17 16 13 9 8 10 13 15 15 13 12 12 12 10 5 3 5 8 8 7 6 5 6 6 6 6 5 6 6 5 5 5 5 3 2 1 1 0 0 0 0 0
20 21 20 16 13 13 14 15 17 17 15 14 13 14 12 9 6 7 9 9 7 6 6 7 9 9 9 7 7 8 7 7 7 6 4 2 2 2 1 0 0 0 0
22 23 22 18 14 13 14 17 19 18 16 15 15 15 14 11 9 9 10 10 9 8 8 9 12 12 10 7 6 6 8 8 8 7 5 4 4 5 3 1 1 0 0
22 23 23 20 15 12 13 18 22 22 20 18 17 16 15 12 10 9 11 13 13 11 10 11 14 15 12 10 8 7 8 8 8 8 8 7 7 7 5 3 2 1 0
22 23 23 22 18 14 14 19 26 28 25 21 19 18 16 13 11 11 13 16 17 16 13 14 16 17 15 14 13 12 9 8 9 10 10 9 8 7 6 4 2 1 1
24 26 26 25 24 21 19 21 29 34 30 25 22 20 17 15 14 14 15 17 18 18 16 16 18 18 15 14 15 15 11 10 10 10 9 9 8 8 8 6 3 2 2
25 28 29 29 30 29 25 25 32 37 35 29 26 22 19 17 17 17 18 18 18 17 16 17 17 17 13 11 13 15 14 13 11 9 8 8 7 8 9 8 5 3 2
21 24 27 31 33 32 28 26 31 37 38 34 29 24 20 20 19 17 17 18 18 18 17 16 14 13 11 11 12 14 15 15 14 12 10 9 8 8 10 10 8 6 4
16 18 23 29 32 31 28 26 28 33 35 33 28 22 20 18 17 14 15 18 20 22 23 21 17 14 13 12 13 14 16 17 17 17 16 14 12 10 10 10 9 9 8
16 17 21 28 32 30 28 27 28 30 29 26 23 21 19 15 13 13 15 19 21 22 26 26 22 18 15 13 14 15 17 18 19 19 19 18 16 13 11 10 10 11 12
21 20 23 31 35 33 30 29 28 28 26 23 21 22 21 18 16 17 18 20 21 21 23 24 23 20 17 15 15 15 15 17 18 18 18 18 16 14 14 13 12 11 12
27 25 25 30 35 37 35 30 27 27 26 24 22 23 23 22 22 22 21 23 22 21 21 21 21 20 18 16 13 13 14 14 14 14 16 16 15 16 17 16 14 12 12
28 27 26 27 33 38 38 34 31 30 29 29 27 26 25 24 24 23 24 25 25 24 23 23 22 22 20 15 12 12 13 13 12 13 15 15 16 17 17 14 13 13 13
23 24 26 27 32 37 38 37 37 36 36 36 35 32 28 25 24 24 25 28 27 26 24 24 24 24 20 13 10 11 12 12 13 14 14 14 14 14 12 8 8 10 11
21 22 26 29 32 35 37 39 40 39 40 41 40 37 33 28 26 27 27 29 30 29 27 26 26 26 20 11 7 8 10 12 14 14 13 11 10 9 6 3 2 4 6
22 24 28 31 32 33 35 38 39 38 39 41 40 38 35 30 29 29 28 28 29 30 29 28 27 27 21 10 3 5 8 12 13 13 11 9 7 6 5 2 1 2 3
23 24 27 29 31 30 31 34 35 34 35 38 39 37 34 32 30 29 28 28 28 29 29 27 27 28 22 11 3 3 7 11 11 11 11 9 7 6 5 4 4 5 5
23 23 23 26 29 30 30 31 31 30 32 36 38 37 36 34 32 32 32 30 28 29 29 27 27 28 22 11 4 4 9 12 11 10 10 8 6 4 3 5 7 7 7
23 23 23 26 30 32 32 32 31 30 32 34 34 34 35 34 34 35 34 31 29 29 27 26 25 24 18 9 3 4 9 12 12 13 12 8 4 2 2 5 7 8 7
22 22 24 27 30 32 33 34 33 33 33 32 30 29 30 30 30 31 30 28 28 26 24 21 18 15 11 5 1 2 6 9 10 12 13 8 3 1 1 3 5 6 6
22 23 25 27 29 30 31 32 31 31 30 27 24 23 23 22 23 24 24 23 24 21 18 15 12 9 7 4 1 1 2 4 6 9 10 7 2 0 0 1 2 3 3
24 25 26 27 28 28 28 28 26 25 24 20 16 15 14 15 17 18 18 19 18 15 12 10 8 7 6 5 3 1 0 1 2 4 5 4 1 0 0 0 0 1 2
25 25 26 26 24 24 25 24 21 18 16 13 9 7 7 9 11 12 12 12 11 10 9 8 7 6 6 6 6 4 2 1 1 1 1 1 0 0 0 0 0 1 1
23 22 22 21 19 19 19 18 16 14 11 8 5 4 4 6 7 8 7 6 6 7 7 7 6 6 6 5 5 5 3 2 0 0 1 2 1 1 1 0 1 2 2
20 20 18 16 15 14 15 14 13 12 10 7 4 3 4 6 6 7 6 3 2 4 5 5 4 5 5 3 3 3 2 1 0 1 2 3 2 2 1 0 1 2 3

GEFSMW_con_prob3kmehi_252.txt.gz
EHI
40 41 39 40 51 63 62 52 43 35 25 20 20 18 16 15 13 16 20 18 15 14 13 10 9 7 5 5 6 7 9 9 8 6 5 6 9 11 12 12 9 7 7
49 52 51 51 59 66 62 53 47 40 29 22 20 17 15 14 12 16 21 20 16 14 12 13 13 11 10 9 10 10 9 8 6 5 5 6 7 8 9 10 8 6 8
60 63 63 63 67 68 62 55 54 48 35 25 21 18 16 14 14 17 21 21 19 15 14 17 17 16 14 13 13 13 11 7 6 6 7 7 8 7 7 7 7 7 10
62 66 68 66 66 65 61 60 61 57 44 32 24 22 22 20 18 20 20 21 21 18 19 20 20 18 18 16 15 13 11 8 8 8 8 8 8 8 7 7 7 9 10
59 64 67 66 63 60 60 64 67 65 54 41 33 30 30 28 25 25 25 24 22 22 24 24 22 20 20 19 17 15 13 11 9 8 7 6 7 7 7 6 7 8 9
55 60 65 68 66 62 62 67 70 68 60 49 42 39 37 36 34 32 31 28 25 25 27 27 24 21 20 20 20 19 17 14 11 8 6 6 7 7 5 5 5 7 8
50 56 64 70 71 69 68 71 74 71 63 53 48 46 42 39 37 33 30 27 25 27 29 28 25 21 20 20 21 22 21 18 14 9 7 7 7 7 5 4 4 5 6
43 52 63 70 72 70 70 73 75 72 65 56 51 48 42 36 34 30 25 23 24 27 32 32 28 24 23 23 23 23 23 21 16 10 8 8 8 8 7 5 3 3 4
37 47 60 66 67 67 69 71 72 70 66 59 52 46 39 32 31 29 24 22 25 28 34 37 33 28 26 26 26 25 25 25 20 14 12 11 9 8 9 8 6 5 4
35 45 56 61 62 64 66 69 70 70 66 60 52 46 41 35 31 30 27 26 28 31 34 38 37 30 26 27 26 24 26 27 22 17 15 13 10 9 11 11 9 7 7
34 42 51 55 57 60 63 66 69 69 65 59 53 50 49 44 36 33 33 33 35 35 35 37 36 29 24 24 23 21 23 24 20 16 14 13 11 11 13 13 11 9 8
29 37 46 50 51 55 60 63 66 66 61 57 56 56 56 52 44 39 38 40 41 39 36 36 32 25 21 21 21 20 20 20 17 14 14 13 13 13 13 13 12 10 8
29 35 43 47 50 54 58 62 65 64 59 56 57 59 59 57 52 46 43 43 43 41 37 33 29 24 22 22 21 20 20 19 18 17 17 16 16 17 15 12 12 10 8
33 37 44 50 53 56 59 62 64 63 61 60 59 60 60 60 58 52 47 44 43 40 36 31 27 24 23 23 24 23 22 20 19 20 20 19 18 17 14 12 11 10 7
34 38 46 51 55 58 59 60 61 61 62 62 61 59 58 59 58 54 49 46 42 39 36 32 27 23 20 20 23 25 24 23 22 21 21 18 15 12 10 9 9 8 7
31 36 45 51 54 55 56 57 57 59 60 61 60 57 56 55 54 52 50 47 43 40 38 35 30 25 19 14 16 22 25 26 26 24 20 15 10 7 6 5 4 5 5
31 35 41 47 49 49 51 54 56 56 57 57 57 55 53 50 49 50 49 47 44 40 36 34 32 28 20 11 9 14 22 26 27 25 21 15 9 7 6 4 3 2 3
33 35 38 40 42 44 49 53 53 54 55 54 52 51 48 44 44 45 46 45 43 39 34 30 29 27 21 12 6 8 17 25 26 24 20 15 11 7 6 5 4 4 3
33 34 35 36 39 44 48 50 50 50 52 51 47 44 42 39 38 40 41 42 42 39 33 29 27 25 20 11 4 5 15 23 24 20 16 13 11 6 3 3 4 5 5
34 33 33 37 42 45 46 46 47 48 49 47 43 40 39 38 36 35 37 38 39 37 33 30 28 25 19 10 3 4 12 19 18 15 12 10 8 4 1 1 4 5 5
35 34 36 41 45 45 44 45 46 47 46 43 40 38 38 37 36 34 33 32 32 32 29 26 25 22 17 10 4 2 7 12 12 11 9 7 4 2 0 1 3 4 4
35 35 38 42 43 42 42 43 43 43 41 39 36 34 34 34 32 30 28 25 24 23 22 20 18 17 15 10 4 1 2 6 8 8 7 5 2 0 0 1 2 3 3
34 34 35 37 36 37 38 39 38 36 35 33 30 28 26 25 23 21 19 17 15 14 15 14 13 13 13 9 4 1 1 2 4 6 5 3 1 0 0 0 1 1 2
35 34 34 32 31 31 32 32 31 30 28 26 23 20 19 17 13 11 9 8 7 8 9 9 9 12 13 10 6 3 2 1 2 3 3 2 1 1 1 1 1 1 2
35 34 32 30 28 27 26 25 25 24 22 20 16 13 12 10 8 6 5 3 2 3 4 5 6 8 9 8 6 4 4 3 2 2 2 2 2 2 2 2 2 2 3
32 31 28 28 27 25 23 23 23 21 19 15 11 8 7 6 5 4 3 2 0 1 2 2 3 5 6 5 4 3 4 3 2 2 2 3 3 3 3 3 3 3 4

GEFSMW_con_prob3kmehi_258.txt.gz
EHI
26 28 28 28 31 29 21 16 15 14 11 9 8 8 6 4 2 0 0 0 1 1 0 0 0 0 0 0 0 0 1 1 1 1 1 0 0 0 0 0 0 0 0
29 31 30 32 35 33 27 21 18 16 12 10 10 9 7 5 3 1 0 1 2 2 1 1 1 1 1 1 0 1 2 2 2 3 2 1 0 0 0 0 0 0 0
32 33 33 35 39 37 33 29 24 21 17 13 12 11 9 6 4 1 1 2 3 3 3 2 2 2 3 2 1 2 3 3 3 4 4 3 1 1 0 0 0 0 0
34 34 35 38 39 38 35 32 28 25 20 17 15 14 11 8 4 3 2 2 3 3 3 3 4 4 4 4 2 2 3 4 3 3 4 4 3 2 1 0 0 0 0
35 35 37 39 39 37 36 34 31 25 21 18 16 15 12 9 6 5 4 3 3 3 3 4 5 5 5 5 4 3 4 4 4 3 4 4 4 3 2 1 0 0 0
34 35 37 40 41 40 40 39 34 27 22 19 16 13 11 9 8 8 7 5 4 3 4 4 4 5 5 6 6 5 5 4 4 4 4 4 4 3 3 2 1 0 0
32 34 36 39 44 45 45 44 40 34 27 20 16 13 11 10 10 9 9 8 5 3 3 4 4 5 6 6 6 6 6 6 5 5 4 4 3 3 3 2 1 0 0
31 34 36 39 44 47 49 48 46 40 32 24 18 16 14 13 11 10 11 10 7 4 4 4 4 6 6 5 4 5 6 6 6 4 3 3 3 3 3 3 1 0 0
30 33 37 40 42 44 48 49 47 42 36 30 24 20 18 16 14 12 13 12 9 6 5 5 5 6 6 5 4 4 4 5 5 4 3 3 3 3 3 3 2 1 0
30 32 36 39 40 40 42 45 45 42 39 36 31 25 23 21 19 18 17 13 10 8 7 6 6 6 6 6 5 4 3 3 4 3 3 3 3 3 3 3 2 1 0
31 32 34 36 37 36 36 40 42 41 39 38 36 32 30 27 25 24 20 14 10 9 9 8 8 7 6 6 6 5 4 3 3 3 3 3 3 3 3 2 2 1 0
30 30 31 32 33 33 33 36 39 39 39 40 40 38 36 34 30 27 21 14 11 11 12 12 11 8 7 6 5 4 3 3 3 3 3 3 3 3 1 1 1 0 0
26 26 28 32 34 33 33 34 36 39 40 42 42 41 40 37 32 29 24 19 15 15 16 17 15 11 9 7 6 4 3 3 3 3 3 3 4 3 1 0 0 0 0
23 25 28 33 37 37 35 35 36 39 43 44 43 43 41 36 32 29 27 23 19 18 18 18 17 14 11 9 8 7 5 4 4 4 3 3 4 3 1 0 0 0 0
23 26 30 35 39 40 39 38 38 41 45 45 43 41 38 34 30 28 27 25 20 17 17 17 15 13 11 9 8 8 8 7 6 5 5 3 2 2 1 0 0 0 0
26 29 32 34 37 40 41 41 41 43 47 47 44 40 37 33 29 27 26 23 18 15 15 14 12 10 10 8 7 7 8 8 7 7 6 4 1 1 0 0 0 0 0
27 29 30 30 33 36 38 40 42 45 50 49 45 41 37 34 29 27 25 20 15 14 14 13 11 9 8 7 4 3 5 7 7 6 6 4 3 2 2 2 1 1 1
26 25 25 26 28 29 31 35 40 46 50 50 46 41 38 35 31 28 24 18 15 15 15 14 11 8 6 4 1 1 4 6 7 6 4 4 5 4 4 4 4 3 3
24 22 21 23 24 24 25 30 38 44 47 48 45 41 37 35 33 29 24 19 16 15 15 14 11 7 4 1 0 1 3 5 7 6 4 4 5 4 4 4 4 4 4
23 22 22 22 21 21 23 28 34 37 39 40 39 37 34 32 31 28 23 19 17 16 14 11 9 6 3 1 0 0 1 3 6 6 5 4 3 2 2 2 3 3 4
19 20 22 21 19 19 21 24 27 28 29 30 31 31 29 27 26 25 21 18 17 15 11 7 5 3 1 0 0 0 0 1 3 5 4 3 1 1 0 1 2 3 2
15 17 18 17 16 16 18 20 21 21 21 22 24 25 25 24 22 21 18 15 12 9 6 4 2 1 0 0 0 0 0 0 2 4 4 2 1 0 0 1 1 1 1
13 14 13 12 12 13 16 17 18 19 18 18 19 21 21 19 17 15 12 8 5 3 2 1 1 0 0 0 0 0 0 0 1 2 2 1 0 0 0 0 0 0 0
12 12 11 10 11 12 14 16 17 18 18 17 16 16 15 12 11 9 7 4 2 1 0 0 0 0 0 0 0 0 0 0 0 1 1 0 0 0 0 0 0 0 0
11 10 10 10 11 12 13 15 17 17 16 15 13 12 10 9 7 6 4 2 1 0 0 0 0 0 0 0 0 0 0 0 0 0 0 0 0 0 0 0 0 0 0
10 10 10 10 10 12 13 15 16 16 15 13 11 9 9 8 7 5 3 1 0 0 0 0 0 0 0 0 0 0 0 0 0 0 0 0 0 0 0 0 0 0 0